Holland, MI

11:00 AM EST on February 14, 2016 (GMT -0500)
Tulip City

Weather History for KBIV - September, 2013

Change the Weather History Date:

Tuesday, September 24, 2013

  Actual Average Record
Temperature  
Mean Temperature 56 °F 60 °F  
Max Temperature 70 °F 70 °F 91 °F (2007)
Min Temperature 41 °F 50 °F 30 °F (1989)
Degree Days  
Heating Degree Days 9 6  
Month to date heating degree days 92 73  
Since 1 July heating degree days 111 88  
Cooling Degree Days 0 1  
Month to date cooling degree days 87 57  
Year to date cooling degree days 794 675  
Growing Degree Days 6 (Base 50)    
Moisture  
Dew Point 45 °F    
Average Humidity 70    
Maximum Humidity 96    
Minimum Humidity 44    
Precipitation  
Precipitation 0.00 in 0.15 in 0.71 in (1970)
Month to date precipitation 0.88 2.91  
Year to date precipitation 28.89 26.12  
Sea Level Pressure  
Sea Level Pressure 30.05 in    
Wind  
Wind Speed 5 mph (East)    
Max Wind Speed 13 mph    
Max Gust Speed 17 mph    
Visibility 9 miles    
Events      
T = Trace of Precipitation, MM = Missing Value Source: NWS Daily Summary

Daily Weather History Graph

Daily Weather History Graph

Search for Another Location

Airport or City:

Trip Planner

Search our weather history database for the weather conditions in past years. The results will help you decide how hot, cold, wet, or windy it might be!

Date:

Astronomy

Sep. 24, 2013 Rise Set
Actual Time 7:34 AM EDT 7:37 PM EDT
Civil Twilight 7:06 AM EDT 8:05 PM EDT
Nautical Twilight 6:33 AM EDT 8:38 PM EDT
Astronomical Twilight 5:59 AM EDT 9:12 PM EDT
Moon 10:47 PM EDT (9/24) 12:55 PM EDT (9/24)
Length of Visible Light 12h 59m
Length of Day
12h 03m
Waning Gibbous, 73% of the Moon is Illuminated
Sep 24
Waning Gibbous
Sep 26
Last Quarter
Oct 4
New
Oct 11
First Quarter
Oct 18
Full

Hourly Weather History & Observations

Time (EDT) Temp. Windchill Dew Point Humidity Pressure Visibility Wind Dir Wind Speed Gust Speed Precip Events Conditions
12:53 AM 45.0 °F 42.6 °F 43.0 °F 93% 30.06 in 10.0 mi East 4.6 mph - N/A   Clear
1:53 AM 45.0 °F 42.6 °F 43.0 °F 93% 30.11 in 10.0 mi East 4.6 mph - N/A   Clear
2:53 AM 44.1 °F 40.8 °F 42.1 °F 93% 30.12 in 10.0 mi East 5.8 mph - N/A   Clear
3:53 AM 44.1 °F 42.5 °F 42.1 °F 93% 30.12 in 9.0 mi ESE 3.5 mph - N/A   Clear
4:53 AM 43.0 °F 39.5 °F 41.0 °F 93% 30.12 in 8.0 mi East 5.8 mph - N/A   Clear
5:53 AM 42.1 °F 40.2 °F 39.9 °F 92% 30.07 in 8.0 mi East 3.5 mph - N/A   Clear
6:53 AM 42.1 °F 40.2 °F 39.9 °F 92% 30.13 in 8.0 mi East 3.5 mph - N/A   Clear
7:53 AM 42.1 °F 40.2 °F 39.9 °F 92% 30.14 in 6.0 mi East 3.5 mph - N/A   Clear
8:53 AM 46.9 °F - 44.1 °F 90% 30.14 in 8.0 mi Calm Calm - N/A   Clear
9:53 AM 54.0 °F - 46.9 °F 77% 30.08 in 10.0 mi ESE 5.8 mph - N/A   Clear
10:53 AM 57.9 °F - 46.9 °F 67% 30.06 in 10.0 mi ESE 9.2 mph - N/A   Clear
11:53 AM 62.1 °F - 46.0 °F 56% 30.11 in 10.0 mi SE 6.9 mph - N/A   Clear
12:53 PM 64.9 °F - 46.0 °F 50% 30.09 in 10.0 mi SE 8.1 mph - N/A   Clear
1:53 PM 66.0 °F - 46.0 °F 48% 30.06 in 10.0 mi ESE 5.8 mph - N/A   Clear
2:53 PM 68.0 °F - 46.9 °F 47% 30.04 in 10.0 mi SE 8.1 mph - N/A   Clear
3:53 PM 68.0 °F - 46.9 °F 47% 30.02 in 10.0 mi ESE 8.1 mph - N/A   Clear
4:53 PM 69.1 °F - 46.9 °F 45% 30.01 in 10.0 mi East 10.4 mph - N/A   Clear
5:53 PM 69.1 °F - 46.9 °F 45% 30.00 in 10.0 mi East 8.1 mph - N/A   Clear
6:53 PM 66.0 °F - 46.9 °F 50% 29.99 in 10.0 mi East 4.6 mph - N/A   Clear
7:53 PM 60.1 °F - 46.9 °F 62% 29.94 in 10.0 mi East 3.5 mph - N/A   Clear
8:53 PM 54.0 °F - 48.0 °F 80% 29.96 in 10.0 mi Calm Calm - N/A   Clear
9:53 PM 51.1 °F - 46.9 °F 86% 29.95 in 10.0 mi Calm Calm - N/A   Clear
10:53 PM 48.9 °F - 46.0 °F 90% 30.00 in 10.0 mi East 4.6 mph - N/A   Clear
11:53 PM 46.9 °F - 45.0 °F 93% 30.00 in 9.0 mi Calm Calm - N/A   Clear